[[{"header":{"parameterUnit":"m.s-1","parameterCategory":1,"la1":30.2992,"la2":30.254,"lo1":-89.0895,"lo2":-89.0443,"dy":0.0025,"dx":0.0025,"nx":19,"ny":19,"refTime":"2026-05-18T21:00:00:Z","depth":0,"parameterNumber":2,"parameterNumberName":"U-component_of_WINDS"},"data":[0,0,0,-2.8969,-2.8969,-2.893,-2.893,-2.8907,-2.8907,0,0,0,0,0,0,0,0,0,0,0,-2.8996,-2.8997,-2.8969,-2.8969,-2.893,-2.893,-2.8907,-2.8907,0,0,0,0,0,0,0,0,0,0,0,-2.8996,-2.8997,-2.8997,-2.8969,-2.893,-2.893,-2.8907,-2.8927,0,0,0,0,0,0,0,0,0,0,-2.896,-2.9,-2.8997,-2.8997,-2.8969,-2.893,-2.893,-2.8927,-2.8925,-2.8936,0,-2.8949,0,-2.8928,-2.8907,-2.8907,0,0,0,-2.8957,-2.9001,-2.8977,-2.8997,-2.8968,-2.893,-2.8944,-2.8926,-2.8924,-2.8934,-2.8948,-2.8946,-2.8927,-2.8907,-2.8907,-2.9006,-2.9007,0,0,-2.8959,-2.8997,-2.8978,-2.8976,-2.8984,-2.8946,-2.8943,-2.8924,-2.8942,-2.8948,-2.8945,-2.8927,-2.8907,-2.8907,-2.9005,-2.9006,0,0,0,-2.8973,-2.9,-2.8975,-2.8978,-2.8969,-2.8945,-2.8942,-2.8943,-2.8932,-2.8945,-2.8927,-2.8907,-2.8907,-2.9004,-2.9005,-2.9092,0,0,0,-2.8974,-2.9008,-2.8977,-2.9,-2.897,-2.8956,-2.8962,-2.8933,-2.893,-2.8927,-2.8907,-2.8907,-2.9002,-2.9005,-2.9087,-2.9125,0,0,0,-2.8994,-2.901,-2.9009,-2.9002,-2.8986,-2.8955,-2.8942,-2.8932,-2.892,-2.8907,-2.8907,-2.9002,-2.9004,-2.9082,-2.9118,-2.9162,0,0,0,-2.9025,-2.9086,-2.9012,-2.9073,-2.8987,-2.9009,-2.8942,-2.8956,-2.8956,-2.8907,-2.9003,-2.9005,-2.9081,-2.9113,-2.9158,-2.9205,-2.9229,0,0,-2.9123,-2.9099,-2.9132,-2.9065,-2.911,-2.9012,-2.907,-2.9033,-2.8997,-2.9005,-2.9007,-2.9088,-2.9117,-2.9161,-2.9351,-2.937,0,0,0,-2.9176,-2.9201,-2.9204,-2.9206,-2.9181,-2.9162,-2.9113,-2.91,-2.9105,-2.9009,-2.9116,-2.9132,-2.9156,-2.9177,-2.9193,-2.9211,-2.9017,-2.9017,-2.9016,-2.9367,-2.932,-2.9372,-2.932,-2.9324,-2.9274,-2.9272,-2.9246,-2.9195,-2.9222,-2.9223,-2.9344,-2.937,-2.9382,-2.9402,-2.9246,-2.9246,-2.9246,-2.9247,-2.9506,-2.9532,-2.9467,-2.9493,-2.9443,-2.9465,-2.9422,-2.9386,-2.94,-2.9339,-2.9358,-2.9293,-2.9404,-2.9419,-2.9253,-2.9252,-2.9251,-2.925,-2.925,-2.9623,-2.9628,-2.9612,-2.9612,-2.9618,-2.9565,-2.9582,-2.9535,-2.9492,-2.9511,-2.9507,-2.9506,-2.9497,-2.9513,-2.9514,-2.9514,-2.9514,-2.9515,-2.9515,-2.9751,-2.9731,-2.975,-2.9732,-2.9728,-2.9718,-2.9672,-2.9668,-2.9651,-2.9616,-2.9616,-2.9563,-2.9425,-2.939,-2.9521,-2.952,-2.9519,-2.9519,-2.9518,-2.9905,-2.9863,-2.9894,-2.9891,-2.9866,-2.9876,-2.9818,-2.9814,-2.9804,-2.9815,-2.976,-2.9666,-2.9637,-2.9624,-2.9594,-2.977,-2.977,-2.977,-2.977,-3.0003,-2.9985,-3.0007,-3.0006,-2.9999,-2.9951,-2.9989,-2.9956,-2.9915,-2.9906,-2.9875,-2.9833,-2.9822,-2.98,-2.9783,-2.9754,-2.9967,-2.9967,-2.9967,-3.0094,-3.0075,-3.0114,-3.0074,-3.0052,-3.0035,-3.0069,-3.0071,-3.0016,-2.9974,-2.9898,-2.989,-2.9822,-2.9802,-2.9755,-2.9729,-2.9677,0,0]},{"header":{"parameterUnit":"m.s-1","parameterCategory":1,"la1":30.2992,"la2":30.254,"lo1":-89.0895,"lo2":-89.0443,"dy":0.0025,"dx":0.0025,"nx":19,"ny":19,"refTime":"2026-05-18T21:00:00:Z","depth":0,"parameterNumber":3,"parameterNumberName":"V-component_of_WINDS"},"data":[0,0,0,2.0815,2.0816,2.0854,2.0854,2.0877,2.0877,0,0,0,0,0,0,0,0,0,0,0,2.0789,2.0788,2.0815,2.0816,2.0854,2.0854,2.0877,2.0877,0,0,0,0,0,0,0,0,0,0,0,2.0789,2.0788,2.0788,2.0816,2.0854,2.0854,2.0877,2.0857,0,0,0,0,0,0,0,0,0,0,2.0824,2.0785,2.0789,2.0788,2.0816,2.0854,2.0854,2.0856,2.0858,2.0848,0,2.0837,0,2.0857,2.0877,2.0877,0,0,0,2.0826,2.0784,2.0808,2.0788,2.0816,2.0854,2.084,2.0858,2.086,2.085,2.0837,2.0839,2.0857,2.0877,2.0877,2.0789,2.0788,0,0,2.0824,2.0787,2.0806,2.0808,2.0802,2.0838,2.0841,2.0859,2.0842,2.0838,2.084,2.0858,2.0877,2.0877,2.0789,2.0788,0,0,0,2.0811,2.0785,2.081,2.0807,2.0816,2.0839,2.0842,2.0841,2.0852,2.084,2.0858,2.0877,2.0877,2.0791,2.0789,2.0709,0,0,0,2.081,2.0778,2.0808,2.0786,2.0815,2.0829,2.0823,2.0851,2.0854,2.0858,2.0877,2.0877,2.0792,2.079,2.0713,2.0676,0,0,0,2.0791,2.0776,2.0776,2.0784,2.0799,2.083,2.0842,2.0852,2.0864,2.0877,2.0877,2.0792,2.079,2.0717,2.0683,2.0642,0,0,0,2.076,2.0703,2.0774,2.0717,2.0798,2.078,2.0843,2.0831,2.0832,2.0877,2.0791,2.0789,2.0718,2.0687,2.0646,2.0601,2.0579,0,0,2.0667,2.069,2.066,2.0725,2.0685,2.0777,2.0726,2.076,2.0794,2.0788,2.0787,2.0712,2.0683,2.0643,2.047,2.0452,0,0,0,2.0618,2.0595,2.0593,2.0593,2.062,2.0639,2.0687,2.07,2.0697,2.0784,2.0688,2.0672,2.065,2.063,2.0614,2.0598,2.0779,2.0779,2.0779,2.0432,2.0481,2.0434,2.0487,2.0486,2.0537,2.054,2.0567,2.0614,2.0591,2.0589,2.0478,2.0453,2.0442,2.0424,2.057,2.0569,2.0569,2.0569,2.03,2.0275,2.0343,2.0321,2.0373,2.0355,2.0401,2.0436,2.0426,2.0483,2.0466,2.0523,2.0421,2.0408,2.0563,2.0564,2.0565,2.0565,2.0566,2.0182,2.0179,2.0198,2.0204,2.0203,2.026,2.0248,2.0295,2.0339,2.0322,2.0325,2.0327,2.0333,2.0321,2.032,2.032,2.0319,2.0319,2.0319,2.0053,2.0077,2.0062,2.0087,2.0094,2.0109,2.016,2.0168,2.0188,2.0223,2.0223,2.0273,2.0403,2.0433,2.0313,2.0314,2.0315,2.0315,2.0316,1.9899,1.9942,1.9918,1.9925,1.9959,1.9955,2.0017,2.0029,2.0042,2.0034,2.0089,2.0177,2.0203,2.0216,2.0241,2.0079,2.0079,2.0079,2.0079,1.9799,1.9819,1.9806,1.9814,1.9828,1.9882,1.9852,1.9892,1.9939,1.995,1.9981,2.002,2.003,2.005,2.0066,2.0091,1.9894,1.9893,1.9893,1.9707,1.973,1.9697,1.9745,1.9776,1.98,1.9774,1.978,1.9842,1.9887,1.9959,1.9967,2.0031,2.0049,2.0092,2.0116,2.0163,0,0]}]]